KD8PH Weather Reports


Display with metric or nautical units.
time (UTC)temp
F
wind
direction
speed
MPH
gust
MPH
rain 1hr
in
rain 24hr
in
rain mn
in
humidity
%
barometer
mb
20260505140537 65 225 5.0 10.0 0.00 0.00 0.00 69 1013.5
20260505124537 62 158 1.0 1.0 0.00 0.00 0.00 73 1013.4
20260505123544 62 158 1.0 2.0 0.00 0.00 0.00 74 1013.4
20260505122536 61 0.0 2.0 0.00 0.00 0.00 76 1013.4
20260505121538 60 0.0 0.0 0.00 0.00 0.00 82 1013.4
20260505120537 58 0.0 0.0 0.00 0.00 0.00 84 1012.9
20260505115536 57 0.0 0.0 0.00 0.00 0.00 83 1012.7
20260505114543 57 0.0 0.0 0.00 0.00 0.00 82 1012.4
20260505113548 57 0.0 0.0 0.00 0.00 0.00 81 1012.3
20260505112548 58 0.0 1.0 0.00 0.00 0.00 79 1012.3
20260505111537 60 338 1.0 2.0 0.00 0.00 0.00 76 1011.9
20260505110540 61 248 1.0 2.0 0.00 0.00 0.00 74 1011.8
20260505101552 61 248 2.0 6.0 0.00 0.00 0.00 72 1011.3
20260505100544 61 248 4.0 7.0 0.00 0.00 0.00 71 1011.3
20260505095544 61 225 3.0 8.0 0.00 0.00 0.00 72 1011.4
20260505094540 61 225 2.0 7.0 0.00 0.00 0.00 71 1011.5
20260505093541 61 248 2.0 6.0 0.00 0.00 0.00 72 1011.5
20260505092544 61 248 2.0 5.0 0.00 0.00 0.00 72 1011.5
20260505091536 62 248 3.0 5.0 0.00 0.00 0.00 70 1011.6
20260505090534 61 248 3.0 8.0 0.00 0.00 0.00 72 1011.6
20260505085542 60 0.0 0.0 0.00 0.00 0.00 77 1011.6
20260505084542 58 225 2.0 7.0 0.00 0.00 0.00 84 1011.5
20260505083542 55 0.0 0.0 0.00 0.00 0.00 88 1011.6
20260505082540 55 0.0 0.0 0.00 0.00 0.00 88 1011.7
20260505081545 55 0.0 0.0 0.00 0.00 0.00 87 1011.8
20260505080534 55 0.0 0.0 0.00 0.00 0.00 87 1011.9
20260505075540 56 0.0 0.0 0.00 0.00 0.00 86 1012.0
20260505074600 56 0.0 0.0 0.00 0.00 0.00 86 1012.0
20260505073554 56 0.0 0.0 0.00 0.00 0.00 87 1011.9
20260505072546 56 0.0 0.0 0.00 0.00 0.00 85 1011.8
20260505071543 56 0.0 0.0 0.00 0.00 0.00 85 1011.6
20260505070558 57 0.0 0.0 0.00 0.00 0.00 87 1011.8
20260505065538 56 0.0 0.0 0.00 0.00 0.00 85 1011.8
20260505064546 56 0.0 0.0 0.00 0.00 0.00 85 1011.8
20260505063540 56 0.0 0.0 0.00 0.00 0.00 84 1011.9
20260505062547 57 0.0 0.0 0.00 0.00 0.00 84 1011.9
20260505061556 57 0.0 0.0 0.00 0.00 0.00 84 1011.9
20260505060539 57 0.0 0.0 0.00 0.00 0.00 84 1011.9
20260505055546 57 0.0 0.0 0.00 0.00 0.00 84 1012.0
20260505054548 57 0.0 0.0 0.00 0.00 0.00 83 1012.0
20260505053553 57 0.0 0.0 0.00 0.00 0.00 83 1012.1
20260505052540 58 0.0 0.0 0.00 0.00 0.00 83 1012.2
20260505051549 58 0.0 0.0 0.00 0.00 0.00 82 1012.2
20260505050541 58 0.0 0.0 0.00 0.00 0.00 83 1012.1
20260505041541 60 0.0 0.0 0.00 0.00 0.00 80 1012.0
20260505040547 60 0.0 0.0 0.00 0.00 0.00 78 1012.0
20260505035540 60 0.0 0.0 0.00 0.00 0.00 77 1012.1
20260505034547 61 0.0 0.0 0.00 0.00 0.00 77 1012.0
20260505033545 61 0.0 0.0 0.00 0.00 0.00 77 1012.1
20260505032538 61 0.0 0.0 0.00 0.00 0.00 76 1012.0
20260505031548 62 0.0 0.0 0.00 0.00 0.00 75 1012.0
20260505030551 62 0.0 0.0 0.00 0.00 0.00 75 1011.9
20260505025550 63 0.0 0.0 0.00 0.00 0.00 74 1012.0
20260505024535 63 0.0 0.0 0.00 0.00 0.00 72 1011.9
20260505023538 64 0.0 0.0 0.00 0.00 0.00 69 1011.9
20260505022557 65 0.0 0.0 0.00 0.00 0.00 70 1011.7
20260505021539 67 0.0 0.0 0.00 0.00 0.00 67 1011.6
20260505020536 66 0.0 0.0 0.00 0.00 0.00 64 1011.6
20260505015555 66 0.0 0.0 0.00 0.00 0.00 64 1011.5
20260505014542 66 0.0 0.0 0.00 0.00 0.00 65 1011.4
20260505013543 67 0.0 0.0 0.00 0.00 0.00 65 1011.4
20260505012601 68 0.0 0.0 0.00 0.00 0.00 61 1011.3
20260505011544 69 0.0 2.0 0.00 0.00 0.00 58 1011.3
20260505010553 71 0.0 0.0 0.00 0.00 0.00 55 1011.2
20260505005538 72 293 1.0 1.0 0.00 0.00 0.00 53 1011.1
20260505004540 73 0.0 1.0 0.00 0.00 0.00 49 1010.9
20260505003548 74 248 2.0 4.0 0.00 0.00 0.00 48 1010.9
20260505002545 74 248 3.0 6.0 0.00 0.00 0.00 44 1010.8
20260505001552 75 225 4.0 8.0 0.00 0.00 0.00 45 1010.7
20260505000539 75 248 4.0 9.0 0.00 0.00 0.00 44 1010.6
20260504235538 75 225 4.0 10.0 0.00 0.00 0.00 45 1010.6
20260504234543 76 225 6.0 11.0 0.00 0.00 0.00 45 1010.6
20260504233537 76 225 7.0 13.0 0.00 0.00 0.00 45 1010.7
20260504232538 76 248 2.0 5.0 0.00 0.00 0.00 48 1010.8
20260504231541 76 248 2.0 5.0 0.00 0.00 0.00 46 1010.8
20260504230536 76 270 2.0 7.0 0.00 0.00 0.00 46 1010.8
20260504225538 76 225 3.0 12.0 0.00 0.00 0.00 46 1010.9
20260504224539 76 248 3.0 9.0 0.00 0.00 0.00 45 1011.0
20260504223557 77 270 3.0 7.0 0.00 0.00 0.00 46 1011.1
20260504222546 77 248 3.0 12.0 0.00 0.00 0.00 44 1011.1
20260504221601 77 225 3.0 13.0 0.00 0.00 0.00 45 1011.3
20260504220539 77 248 4.0 10.0 0.00 0.00 0.00 43 1011.3
20260504215535 77 293 3.0 8.0 0.00 0.00 0.00 44 1011.4
20260504214550 77 248 6.0 16.0 0.00 0.00 0.00 43 1011.4
20260504213538 77 248 3.0 8.0 0.00 0.00 0.00 46 1011.3
20260504212543 77 225 6.0 11.0 0.00 0.00 0.00 45 1011.3
20260504211541 77 225 6.0 13.0 0.00 0.00 0.00 45 1011.3
20260504210536 77 68 2.0 6.0 0.00 0.00 0.00 43 1011.4
20260504205538 76 248 4.0 9.0 0.00 0.00 0.00 45 1011.6
20260504204536 76 225 5.0 11.0 0.00 0.00 0.00 45 1011.6
20260504203550 76 248 5.0 14.0 0.00 0.00 0.00 45 1011.7
20260504202539 75 225 7.0 11.0 0.00 0.00 0.00 49 1011.9
20260504201544 76 225 10.0 15.0 0.00 0.00 0.00 43 1011.9
20260504200541 76 225 4.0 12.0 0.00 0.00 0.00 46 1012.0
20260504195547 76 248 4.0 13.0 0.00 0.00 0.00 49 1012.1
20260504194549 76 293 3.0 8.0 0.00 0.00 0.00 47 1012.3
20260504193552 75 225 3.0 10.0 0.00 0.00 0.00 47 1012.4
20260504192558 75 270 2.0 4.0 0.00 0.00 0.00 48 1012.5
20260504191548 75 248 2.0 5.0 0.00 0.00 0.00 49 1012.8
20260504190546 75 248 5.0 10.0 0.00 0.00 0.00 47 1013.1
20260504185542 74 225 4.0 9.0 0.00 0.00 0.00 49 1013.1
20260504184536 74 225 5.0 10.0 0.00 0.00 0.00 52 1013.3
20260504183542 74 248 5.0 10.0 0.00 0.00 0.00 50 1013.4
20260504182539 73 225 5.0 11.0 0.00 0.00 0.00 51 1013.5
20260504181543 73 225 7.0 12.0 0.00 0.00 0.00 53 1013.7
20260504180545 72 225 8.0 13.0 0.00 0.00 0.00 51 1013.8
20260504175538 72 248 4.0 10.0 0.00 0.00 0.00 53 1014.0
20260504174537 72 225 6.0 13.0 0.00 0.00 0.00 52 1014.1
20260504173539 72 225 6.0 11.0 0.00 0.00 0.00 53 1014.2
20260504172540 72 248 7.0 11.0 0.00 0.00 0.00 55 1014.2
20260504171544 71 225 8.0 15.0 0.00 0.00 0.00 54 1014.4
20260504170553 71 225 8.0 14.0 0.00 0.00 0.00 54 1014.5
20260504150539 65 225 8.0 15.0 0.00 0.00 0.00 59 1015.5